sat.trackr.live / text

‹ back to catalog

STARLINK-3115

NORAD 49447 · 2021-104AR

PAYLOAD ACTIVE UNKNOWN

§ Identity

Operator
Country
US
Launch date
2021-11-13
Launch site
AFETR
Launch vehicle
Mass (kg)
RCS (m²)

Purposes: comms

External: N2YO · Heavens-Above · Gunter

§ Orbital elements

Epoch: 2026-09-20T02:11:47.899104Z

Period
94.01 min
Inclination
53.1604°
Eccentricity
0.0001308
Mean motion
15.31695673 rev/d
Perigee alt
469.9 km
Apogee alt
471.6 km
Semi-major
6,848.9 km
B*
-1.4667e-6
RAAN
53.7367°
Arg perigee
68.4692°
Mean anomaly
291.6449°
Rev number
26,829

§ Raw data

STARLINK-31151 49447U 21104AR  26263.09152661 -.00000411  00000+0 -14667-5 0  99912 49447  53.1604  53.7367 0001308  68.4692 291.6449 15.31695673268295

JSON: /api/v1/satellites/49447 · /tle

For live sub-satellite position, see the globe view (requires WebGL).

§ Visibility from observer

Set your observer location to see the next 7 days of passes ≥ 10°. The values pass through the URL so the page stays shareable.

No JS? Fill the form by hand. The geolocation button needs JavaScript.